West Lincoln

*Note: All times are displayed in the local standard time of the station location.
**Rain - Equipment is designed to accurately record liquid precipitation; under conditions when precipitation is not in liquid form, the data displayed may not properly reflect rainfall values.

Date Max Temp
(°C)
Min Temp
(°C)
Avg Temp
(°C)
Rain (mm) Avg RH (%)
Sat, Feb 17, 2018 -2.1 -7.5 -3.8 0.0 76.1
Fri, Feb 16, 2018 4.0 -6.4 -0.9 0.0 80.6
Thu, Feb 15, 2018 7.0 2.3 4.8 0.6 99.5
Wed, Feb 14, 2018 3.8 -5.3 1.4 12.2 79.5
Tue, Feb 13, 2018 -2.2 -17.0 -8.5 0.0 77.8
Mon, Feb 12, 2018 -2.8 -13.0 -6.6 0.0 75.6
Sun, Feb 11, 2018 0.1 -4.6 -2.5 0.2 94.4
DateTime Avg Temp (°C) Rain (mm) RH (%)
Sun, Feb 18, 2018 04:00 -3.3 0.0 92.8
Sun, Feb 18, 2018 03:00 -3.0 0.0 89.5
Sun, Feb 18, 2018 02:00 -2.8 0.0 88.8
Sun, Feb 18, 2018 01:00 -2.6 0.0 91.3
Sun, Feb 18, 2018 00:00 -2.4 0.0 89.3
Sat, Feb 17, 2018 23:00 -2.1 0.0 84.5
Sat, Feb 17, 2018 22:00 -2.2 0.0 76.8
Sat, Feb 17, 2018 21:00 -2.3 0.0 76.3
Sat, Feb 17, 2018 20:00 -2.3 0.0 74.3
Sat, Feb 17, 2018 19:00 -2.3 0.0 70.5
Sat, Feb 17, 2018 18:00 -2.3 0.0 64.3
Sat, Feb 17, 2018 17:00 -2.3 0.0 62.3
Sat, Feb 17, 2018 16:00 -2.2 0.0 64.8
Sat, Feb 17, 2018 15:00 -2.2 0.0 66.5
Sat, Feb 17, 2018 14:00 -2.2 0.0 66.3
Sat, Feb 17, 2018 13:00 -2.2 0.0 66.0
Sat, Feb 17, 2018 12:00 -2.4 0.0 66.0
Sat, Feb 17, 2018 11:00 -2.6 0.0 69.5
Sat, Feb 17, 2018 10:00 -3.6 0.0 75.0
Sat, Feb 17, 2018 09:00 -4.5 0.0 78.5
Sat, Feb 17, 2018 08:00 -5.8 0.0 80.8
Sat, Feb 17, 2018 07:00 -6.2 0.0 83.3
Sat, Feb 17, 2018 06:00 -6.3 0.0 85.0
Sat, Feb 17, 2018 05:00 -6.6 0.0 86.8
Sat, Feb 17, 2018 04:00 -6.6 0.0 87.8
Sat, Feb 17, 2018 03:00 -7.1 0.0 86.5
Sat, Feb 17, 2018 02:00 -7.2 0.0 85.0
Sat, Feb 17, 2018 01:00 -6.5 0.0 80.8
Sat, Feb 17, 2018 00:00 -6.3 0.0 78.8
Fri, Feb 16, 2018 23:00 -6.1 0.0 78.8
Fri, Feb 16, 2018 22:00 -5.8 0.0 76.8
Fri, Feb 16, 2018 21:00 -5.2 0.0 69.0
Fri, Feb 16, 2018 20:00 -4.6 0.0 64.0
Fri, Feb 16, 2018 19:00 -4.3 0.0 64.3
Fri, Feb 16, 2018 18:00 -3.4 0.0 60.5
Fri, Feb 16, 2018 17:00 -2.2 0.0 60.3
Fri, Feb 16, 2018 16:00 -1.6 0.0 61.8
Fri, Feb 16, 2018 15:00 -0.1 0.0 59.8
Fri, Feb 16, 2018 14:00 0.3 0.0 59.3
Fri, Feb 16, 2018 13:00 0.6 0.0 64.5
Fri, Feb 16, 2018 12:00 0.8 0.0 75.0
Fri, Feb 16, 2018 11:00 0.5 0.0 87.8
Fri, Feb 16, 2018 10:00 0.5 0.0 88.5
Fri, Feb 16, 2018 09:00 0.3 0.0 89.8
Fri, Feb 16, 2018 08:00 0.1 0.0 95.3
Fri, Feb 16, 2018 07:00 0.6 0.0 100.0
Fri, Feb 16, 2018 06:00 1.3 0.0 100.0
Fri, Feb 16, 2018 05:00 1.9 0.0 100.0


asterix Register now to access more data! asterix